Hourly Weather Roundup
Issued by NWS Central Illinois

Home | Current Version | Previous Version | Text Only | Print | Product List | Glossary On
Versions: 1 2 3 4 5 6 7 8 9 10 11 12 13 14 15 16 17 18 19 20 21 22 23 24 25 26 27 28 29 30 31 32 33 34 35 36 37 38 39 40 41 42 43 44 45 46 47 48 49 50
000
NZUS43 KILX 251010
HWRILX

AREA WEATHER ROUNDUP
NATIONAL WEATHER SERVICE, LINCOLN IL
500 AM CDT SAT OCT 25 2014


CITY           SKY/WX    TMP DP  RH WIND       PRES   REMARKS
BLOOMINGTON    CLEAR     55  52  90 W5        29.97R
CHAMPAIGN      PTCLDY    53  50  89 SW7       29.95R
DECATUR        PTCLDY    58  53  84 W8        29.96R
FLORA          PTCLDY    56  53  89 S3        29.99R
GALESBURG      FOG       50  50  99 CALM      29.95S VSB<1/4
JACKSONVILLE   NOT AVBL
LACON          MOCLDY    51  49  91 CALM      29.95R
LAWRENCEVILLE  CLOUDY    56  54  93 S5        29.98F
LITCHFIELD     MOCLDY    57  54  88 W6        29.98R
$$


CITY           SKY/WX    TMP DP  RH WIND       PRES   REMARKS
LINCOLN        CLEAR     55  51  87 CALM      29.96R
MACOMB         FOG       46  46 100 CALM      29.99R VSB 1/4
MATTOON        MOCLDY    58  53  84 SW7       29.95S
MT CARMEL AP   CLOUDY    61  55  82 SW6       29.99S
OLNEY-NOBLE AP CLOUDY    59  54  82 CALM      29.99R
PARIS          MOCLDY    56  53  89 SW6       29.95S
PEORIA         MOCLDY    53  49  86 CALM      29.96S
PONTIAC        MOCLDY    55  52  90 W6        29.95S
RANTOUL        PTCLDY    54  51  90 W6        29.95R
ROBINSON       MOCLDY    57  54  89 S3        29.98S
SPRINGFIELD    CLEAR     53  50  89 W5        29.97R FOG
TAYLORVILLE    CLEAR     57  54  88 W9        29.96S
$$

...REGIONAL REPORTS...


CITY           SKY/WX    TMP DP  RH WIND       PRES   REMARKS
CHICAGO O`HARE CLOUDY    57  54  89 W13       29.90S
KANKAKEE       PTCLDY    55  51  89 W6        29.93S
MOLINE         FOG       55  54  96 W8        29.95R VSB 1/4
MOUNT VERNON   CLEAR     54  50  87 SW3       30.00S
PITTSFIELD     CLEAR     60  58  92 W5        30.00R FOG
QUINCY         CLEAR     56  56 100 W6        29.99R FOG
ROCKFORD       MOCLDY    57  54  89 W8        29.94R FOG
$$


CITY           SKY/WX    TMP DP  RH WIND       PRES   REMARKS
BURLINGTON     FOG       57  57 100 NW5       29.96S VSB 1/4
CEDAR RAPIDS   FOG       47  47 100 NW6       29.96R VSB 1/4
DES MOINES     CLEAR     52  49  89 NW5       30.00R
KIRKSVILLE     FOG       53  53 100 W3        30.00S VSB<1/4
OTTUMWA        CLEAR     51  50  96 W8        29.97S
ST LOUIS       PTCLDY    61  57  87 W6        29.99
$$


CITY           SKY/WX    TMP DP  RH WIND       PRES   REMARKS
TERRE HAUTE    MOCLDY    57  51  80 SW7       29.96S
EVANSVILLE     CLOUDY    58  53  84 SW8       30.02R
INDIANAPOLIS   CLOUDY    54  50  86 S7        29.95F
LAFAYETTE      MOCLDY    53  51  93 W5        29.93S
MADISON        CLEAR     57  54  89 VRB7      29.88S FOG
MILWAUKEE      PTCLDY    57  53  86 W13       29.86F
$$





USA.gov is the U.S. government's official web portal to all federal, state and local government web resources and services.